Location: Aalen
(48.8330°N, 10.1000°E)
Time: 17:53:37
(UTC+01:00)

UWE-3 - Pass Details

Date: 11 October 2025
Orbit: 548 x 618 km, 97.8° (Epoch: 12 November)

Event Time Altitude Azimuth Distance (km) Brightness Sun altitude
Rises 04:32:48 0° 8° (N) 2,751 ? -29.9°
Reaches altitude 10° 04:34:58 10° 3° (N) 1,859 ? -29.6°
Enters shadow 04:35:32 14° 1° (N) 1,631 ? -29.5°
